[[{"header":{"parameterUnit":"m.s-1","parameterCategory":1,"la1":30.2991,"la2":30.254,"lo1":-89.0895,"lo2":-89.0444,"dx":0.0017,"dy":0.0017,"nx":28,"ny":28,"refTime":"2023-01-10T15:00:00:Z","depth":0,"parameterNumber":2,"parameterNumberName":"U-component_of_WINDS"},"data":[0,0,0,0,0,0,0,0,0,0,0,0,0,0,0,0,0,0,0,0,0,0,0,0,0,0,0,0,0,0,0,0,0,0,0,0,0,0,0,0,0,0,0,0,0,0,0,0,0,0,0,0,0,0,0,0,0,0,-0.2912,-0.2913,0,-0.2948,-0.2948,-0.2948,-0.2944,-0.2944,-0.2943,-0.2943,-0.2979,-0.2981,-0.2982,0,0,0,0,0,0,0,0,0,0,0,0,0,-0.2841,-0.2843,-0.2912,-0.2913,-0.2913,-0.2948,-0.2948,-0.2949,-0.2944,-0.2944,-0.2943,-0.2942,-0.2979,-0.2981,-0.2982,0,0,0,0,0,0,0,0,0,0,0,0,0,-0.2874,-0.2843,-0.2912,-0.2915,-0.2916,-0.2947,-0.2948,-0.2949,-0.2945,-0.2944,-0.2943,-0.2942,-0.2978,-0.298,-0.2983,-0.3014,0,0,-0.299,-0.2991,0,0,0,0,0,0,0,0,-0.2872,-0.2877,-0.2914,-0.2915,-0.2916,-0.2941,-0.2936,-0.297,-0.2945,-0.2934,-0.2943,-0.2942,-0.2967,-0.297,-0.2979,-0.3015,-0.3017,-0.299,-0.2991,-0.2992,-0.2993,0,0,0,0,0,0,0,-0.287,-0.2875,-0.2926,-0.2915,-0.2916,-0.2915,-0.2919,-0.2943,-0.2955,-0.2935,-0.2934,-0.2939,-0.2967,-0.2977,-0.298,-0.3017,-0.299,-0.2992,-0.2993,-0.2994,-0.3081,-0.3082,0,0,0,0,0,0,-0.2867,-0.2873,-0.2925,-0.2927,-0.2891,-0.2917,-0.2921,-0.2934,-0.2955,-0.2957,-0.2939,-0.2938,-0.2973,-0.2977,-0.2981,-0.3018,-0.2992,-0.2994,-0.2995,-0.308,-0.3081,-0.3082,0,0,0,0,0,0,-0.2865,-0.2872,-0.2924,-0.29,-0.2907,-0.2919,-0.2933,-0.2935,-0.2944,-0.2958,-0.296,-0.2947,-0.2973,-0.2978,-0.3005,-0.3019,-0.2995,-0.2997,-0.3079,-0.308,-0.3081,-0.3093,0,0,0,0,0,0,-0.2863,-0.2871,-0.2883,-0.2901,-0.2908,-0.2947,-0.2934,-0.2936,-0.2948,-0.2947,-0.2965,-0.2968,-0.2972,-0.3002,-0.3008,-0.3022,-0.2999,-0.3077,-0.3079,-0.3081,-0.3092,-0.3095,-0.3098,0,0,0,0,0,-0.2861,-0.2885,-0.2883,-0.289,-0.2923,-0.2948,-0.2953,-0.2958,-0.2949,-0.2961,-0.297,-0.2967,-0.3017,-0.3005,-0.3011,-0.3027,-0.3077,-0.3079,-0.3081,-0.309,-0.3094,-0.3098,0,0,0,0,0,0,-0.2869,-0.2887,-0.2886,-0.2916,-0.2931,-0.2948,-0.2963,-0.2962,-0.2979,-0.2977,-0.2983,-0.2987,-0.3015,-0.3023,-0.301,-0.3057,-0.3046,-0.3049,-0.3051,-0.3055,-0.3057,-0.3055,-0.3001,0,0,0,0,0,-0.2874,-0.2893,-0.2908,-0.2933,-0.2941,-0.2951,-0.2962,-0.2964,-0.2979,-0.2986,-0.2997,-0.3012,-0.3031,-0.3043,-0.3061,-0.3093,-0.3097,-0.3107,-0.311,-0.3112,-0.3115,-0.3132,-0.3136,-0.3089,-0.3089,-0.3089,0,0,-0.2885,-0.2898,-0.2909,-0.2935,-0.2947,-0.2966,-0.2956,-0.2977,-0.2991,-0.2989,-0.3015,-0.3024,-0.3041,-0.3071,-0.3084,-0.3079,-0.3129,-0.3115,-0.3116,-0.3118,-0.3134,-0.3139,-0.3143,-0.309,-0.309,-0.309,0,0,-0.2915,-0.2927,-0.2949,-0.296,-0.2978,-0.2984,-0.299,-0.3007,-0.3012,-0.3039,-0.3038,-0.3055,-0.3088,-0.31,-0.311,-0.3145,-0.3143,-0.3151,-0.3166,-0.3183,-0.3186,-0.319,-0.3202,-0.3206,-0.3153,-0.3153,-0.3154,0,-0.2927,-0.2956,-0.296,-0.2982,-0.2993,-0.2992,-0.3014,-0.3025,-0.3048,-0.3056,-0.305,-0.309,-0.3102,-0.3134,-0.3142,-0.3151,-0.3157,-0.3148,-0.3185,-0.3189,-0.3192,-0.3203,-0.3208,-0.3154,-0.3154,-0.3154,-0.3154,0,-0.2969,-0.2989,-0.3005,-0.3027,-0.304,-0.3062,-0.307,-0.3083,-0.3084,-0.3091,-0.3118,-0.3132,-0.3153,-0.3161,-0.3163,-0.3193,-0.3189,-0.3184,-0.3172,-0.3197,-0.3208,-0.3213,-0.3155,-0.3155,-0.3155,-0.3155,0,0,-0.3005,-0.3029,-0.3034,-0.3044,-0.3063,-0.3079,-0.3101,-0.3121,-0.3132,-0.3148,-0.3166,-0.3193,-0.3189,-0.3201,-0.3204,-0.3218,-0.3244,-0.3211,-0.3211,-0.3216,-0.3278,-0.3282,-0.3287,-0.3243,-0.3244,-0.3244,-0.3277,0,-0.3037,-0.3075,-0.308,-0.3114,-0.3132,-0.3131,-0.315,-0.3164,-0.3171,-0.3188,-0.3196,-0.3215,-0.3207,-0.3215,-0.3229,-0.3238,-0.3257,-0.3236,-0.326,-0.326,-0.3255,-0.3293,-0.3297,-0.3327,-0.3281,-0.3282,-0.3282,0,-0.3079,-0.3095,-0.3131,-0.3147,-0.3155,-0.3172,-0.3191,-0.3207,-0.3223,-0.3227,-0.324,-0.3241,-0.3264,-0.3251,-0.3282,-0.3267,-0.3278,-0.3284,-0.3285,-0.3287,-0.3273,-0.3296,-0.3336,-0.3341,-0.3289,-0.3289,-0.3288,0,-0.3101,-0.3132,-0.3157,-0.3166,-0.3186,-0.3197,-0.3206,-0.3221,-0.3233,-0.3249,-0.3257,-0.3276,-0.3286,-0.3301,-0.3307,-0.3298,-0.3338,-0.3326,-0.3341,-0.3341,-0.335,-0.3349,-0.3392,-0.3357,-0.3357,-0.3357,-0.3357,0,-0.3136,-0.3157,-0.3168,-0.3183,-0.3208,-0.3213,-0.3237,-0.3245,-0.3258,-0.3275,-0.3276,-0.3292,-0.3299,-0.3316,-0.3321,-0.3346,-0.3351,-0.3355,-0.3356,-0.3354,-0.3354,-0.3361,-0.3359,-0.3358,-0.3358,-0.3357,-0.3357,0,-0.3164,-0.3172,-0.32,-0.3216,-0.322,-0.3238,-0.3252,-0.3267,-0.3274,-0.3295,-0.3301,-0.3312,-0.3332,-0.334,-0.3364,-0.3368,-0.3396,-0.3396,-0.3391,-0.3391,-0.3406,-0.3404,-0.3455,-0.3462,-0.3422,-0.3423,-0.3423,0,-0.3186,-0.3202,-0.322,-0.3232,-0.3241,-0.3259,-0.3271,-0.3277,-0.329,-0.3309,-0.3321,-0.3342,-0.3358,-0.339,-0.34,-0.3419,-0.3419,-0.3436,-0.3422,-0.342,-0.3419,-0.3418,-0.3419,-0.3438,-0.3438,-0.3439,-0.3439,0,-0.3223,-0.3226,-0.3243,-0.3261,-0.3276,-0.3291,-0.3305,-0.3314,-0.3323,-0.3337,-0.3357,-0.337,-0.3395,-0.3415,-0.3434,-0.3443,-0.3442,-0.3443,-0.3448,-0.3446,-0.3443,-0.3444,-0.3397,-0.3442,-0.3442,-0.3441,-0.3441,-0.3441,-0.3248,-0.3263,-0.3278,-0.3297,-0.3308,-0.3322,-0.3337,-0.3345,-0.3363,-0.3383,-0.3386,-0.3408,-0.3423,-0.3449,-0.3459,-0.3476,-0.3472,-0.3478,-0.348,-0.3481,-0.3482,-0.344,-0.348,-0.348,-0.3479,-0.3479,-0.3479,0,-0.3285,-0.3294,-0.3312,-0.3332,-0.3347,-0.3345,-0.3361,-0.3373,-0.3393,-0.3407,-0.3423,-0.3446,-0.3466,-0.3477,-0.3496,-0.3508,-0.3508,-0.3513,-0.3512,-0.3514,-0.3485,-0.3479,-0.3512,-0.3512,-0.3512,-0.3512,-0.3512,-0.3512,-0.3306,-0.333,-0.3335,-0.3365,-0.3374,-0.3396,-0.3405,-0.3417,-0.3429,-0.3455,-0.3471,-0.3478,-0.3491,-0.3511,-0.3529,-0.3532,-0.3539,-0.3544,-0.3546,-0.3519,-0.3516,-0.3513,-0.3507,-0.3545,-0.3546,-0.3573,-0.3574,-0.3574]},{"header":{"parameterUnit":"m.s-1","parameterCategory":1,"la1":30.2991,"la2":30.254,"lo1":-89.0895,"lo2":-89.0444,"dx":0.0017,"dy":0.0017,"nx":28,"ny":28,"refTime":"2023-01-10T15:00:00:Z","depth":0,"parameterNumber":3,"parameterNumberName":"V-component_of_WINDS"},"data":[0,0,0,0,0,0,0,0,0,0,0,0,0,0,0,0,0,0,0,0,0,0,0,0,0,0,0,0,0,0,0,0,0,0,0,0,0,0,0,0,0,0,0,0,0,0,0,0,0,0,0,0,0,0,0,0,0,0,-1.2211,-1.2212,0,-1.229,-1.2291,-1.2292,-1.2343,-1.2344,-1.2344,-1.2344,-1.2425,-1.2427,-1.2429,0,0,0,0,0,0,0,0,0,0,0,0,0,-1.2103,-1.2105,-1.2211,-1.2212,-1.2213,-1.229,-1.2291,-1.2292,-1.2343,-1.2344,-1.2344,-1.2344,-1.2425,-1.2427,-1.2429,0,0,0,0,0,0,0,0,0,0,0,0,0,-1.2163,-1.2105,-1.2211,-1.2248,-1.2252,-1.229,-1.2291,-1.2293,-1.2343,-1.2344,-1.2344,-1.2345,-1.2424,-1.2427,-1.2429,-1.2437,0,0,-1.2438,-1.2439,0,0,0,0,0,0,0,0,-1.2159,-1.2167,-1.2241,-1.2245,-1.225,-1.2307,-1.2283,-1.2341,-1.2343,-1.2308,-1.2344,-1.2345,-1.2386,-1.2392,-1.2406,-1.2441,-1.2445,-1.2438,-1.244,-1.2441,-1.2442,0,0,0,0,0,0,0,-1.2155,-1.2164,-1.2242,-1.2242,-1.2247,-1.226,-1.2269,-1.2294,-1.2343,-1.2311,-1.2315,-1.2324,-1.2388,-1.2403,-1.2408,-1.2446,-1.2438,-1.2441,-1.2442,-1.2444,-1.2492,-1.2492,0,0,0,0,0,0,-1.2145,-1.216,-1.224,-1.2245,-1.2205,-1.2262,-1.2272,-1.2288,-1.2343,-1.2352,-1.2324,-1.2326,-1.2398,-1.2405,-1.2411,-1.2424,-1.2441,-1.2444,-1.2445,-1.2492,-1.2492,-1.2491,0,0,0,0,0,0,-1.2143,-1.2152,-1.2237,-1.2203,-1.2215,-1.2263,-1.2281,-1.229,-1.2304,-1.2353,-1.2362,-1.2329,-1.2398,-1.2407,-1.243,-1.2427,-1.2445,-1.2448,-1.2493,-1.2492,-1.2492,-1.2449,0,0,0,0,0,0,-1.2139,-1.2151,-1.2154,-1.2203,-1.2217,-1.2255,-1.2281,-1.2291,-1.2309,-1.2313,-1.236,-1.2369,-1.2399,-1.2426,-1.2433,-1.2431,-1.245,-1.2493,-1.2492,-1.2492,-1.2451,-1.2447,-1.2443,0,0,0,0,0,-1.2135,-1.2139,-1.2154,-1.2163,-1.2222,-1.2254,-1.2262,-1.2298,-1.2309,-1.2313,-1.2344,-1.2367,-1.2426,-1.2428,-1.2437,-1.2435,-1.2494,-1.2493,-1.2492,-1.2452,-1.2448,-1.2444,0,0,0,0,0,0,-1.2088,-1.2146,-1.2163,-1.2183,-1.2213,-1.2263,-1.2269,-1.2291,-1.2319,-1.2322,-1.2365,-1.2375,-1.2394,-1.2417,-1.2418,-1.2446,-1.2463,-1.2464,-1.243,-1.2426,-1.2422,-1.2416,-1.2452,0,0,0,0,0,-1.208,-1.2102,-1.2151,-1.2163,-1.2178,-1.222,-1.2236,-1.2261,-1.2294,-1.2307,-1.234,-1.2371,-1.2397,-1.2413,-1.2439,-1.2455,-1.2465,-1.2458,-1.2454,-1.2451,-1.2451,-1.2461,-1.2458,-1.2488,-1.2488,-1.2488,0,0,-1.2063,-1.2098,-1.2109,-1.2155,-1.2181,-1.2202,-1.2231,-1.2252,-1.2268,-1.231,-1.2334,-1.2359,-1.2397,-1.2416,-1.2427,-1.2436,-1.2445,-1.245,-1.2447,-1.2449,-1.246,-1.2457,-1.2454,-1.2488,-1.2488,-1.2488,0,0,-1.2044,-1.2072,-1.2085,-1.2111,-1.2151,-1.218,-1.2183,-1.2229,-1.2247,-1.2272,-1.2304,-1.2324,-1.2367,-1.2393,-1.2411,-1.2402,-1.2424,-1.2409,-1.239,-1.2399,-1.2396,-1.2394,-1.239,-1.2388,-1.2409,-1.2409,-1.2409,0,-1.2018,-1.2051,-1.2089,-1.2109,-1.2128,-1.2167,-1.2181,-1.2204,-1.225,-1.2263,-1.2273,-1.2328,-1.2357,-1.2382,-1.238,-1.2394,-1.2399,-1.2403,-1.2394,-1.2392,-1.2391,-1.2387,-1.2386,-1.2407,-1.2407,-1.2407,-1.2407,0,-1.2017,-1.204,-1.2046,-1.2089,-1.211,-1.2126,-1.2166,-1.2182,-1.2205,-1.2232,-1.2257,-1.2292,-1.2326,-1.2335,-1.2357,-1.2364,-1.2368,-1.2386,-1.2403,-1.2385,-1.2383,-1.2382,-1.2404,-1.2404,-1.2405,-1.2406,0,0,-1.197,-1.2034,-1.2036,-1.2056,-1.2103,-1.2121,-1.2139,-1.2173,-1.2185,-1.2216,-1.2232,-1.2268,-1.2284,-1.2305,-1.2331,-1.2339,-1.2328,-1.2356,-1.2357,-1.2349,-1.2337,-1.2323,-1.2321,-1.2344,-1.2344,-1.2344,-1.2334,0,-1.1956,-1.1991,-1.2026,-1.2048,-1.2069,-1.2107,-1.2123,-1.2153,-1.2179,-1.2201,-1.223,-1.2254,-1.2274,-1.2287,-1.2297,-1.2328,-1.2326,-1.2329,-1.2359,-1.236,-1.2347,-1.232,-1.2305,-1.2294,-1.2333,-1.2333,-1.2333,0,-1.1946,-1.1974,-1.1998,-1.2043,-1.2053,-1.2067,-1.21,-1.2121,-1.2156,-1.2175,-1.2198,-1.2226,-1.2247,-1.2262,-1.2292,-1.2292,-1.2307,-1.2324,-1.2324,-1.2328,-1.2344,-1.2322,-1.2291,-1.2289,-1.2332,-1.2332,-1.2332,0,-1.1907,-1.1952,-1.1973,-1.1989,-1.2042,-1.205,-1.2073,-1.2109,-1.2126,-1.2156,-1.2168,-1.2199,-1.2216,-1.2239,-1.2275,-1.2283,-1.23,-1.2319,-1.2315,-1.2314,-1.2316,-1.2316,-1.2287,-1.2327,-1.2327,-1.2327,-1.2327,0,-1.1889,-1.1902,-1.1956,-1.1968,-1.1984,-1.2024,-1.2039,-1.2065,-1.2096,-1.2114,-1.2149,-1.2165,-1.2211,-1.2233,-1.226,-1.228,-1.2288,-1.2303,-1.231,-1.2299,-1.2297,-1.2309,-1.231,-1.2327,-1.2327,-1.2327,-1.2327,0,-1.1848,-1.1885,-1.191,-1.1958,-1.197,-1.198,-1.2021,-1.2034,-1.2063,-1.2085,-1.2093,-1.2137,-1.2164,-1.2202,-1.224,-1.2259,-1.2275,-1.2287,-1.2263,-1.2267,-1.2261,-1.2261,-1.2238,-1.2236,-1.2278,-1.2277,-1.2277,0,-1.1833,-1.1844,-1.1894,-1.1908,-1.1929,-1.1952,-1.1971,-1.2011,-1.2029,-1.207,-1.2078,-1.2108,-1.2134,-1.2175,-1.2211,-1.2241,-1.2253,-1.2243,-1.2258,-1.2247,-1.2252,-1.2251,-1.2252,-1.2239,-1.2238,-1.2238,-1.2237,0,-1.1803,-1.1821,-1.1846,-1.1877,-1.1898,-1.1925,-1.1953,-1.1963,-1.2009,-1.2028,-1.2056,-1.2076,-1.2115,-1.2144,-1.2179,-1.2202,-1.2227,-1.2233,-1.2233,-1.2222,-1.2207,-1.2215,-1.2252,-1.2233,-1.2233,-1.2234,-1.2234,-1.2234,-1.1774,-1.1786,-1.1822,-1.1849,-1.1875,-1.19,-1.1915,-1.1945,-1.197,-1.2005,-1.2027,-1.2054,-1.2089,-1.2139,-1.2161,-1.2182,-1.2192,-1.2193,-1.2194,-1.2193,-1.2189,-1.2205,-1.2189,-1.2189,-1.2189,-1.2189,-1.2189,0,-1.1745,-1.177,-1.1795,-1.1833,-1.1854,-1.1876,-1.1909,-1.1925,-1.1948,-1.1979,-1.2004,-1.2036,-1.2065,-1.2103,-1.2134,-1.2144,-1.2156,-1.215,-1.215,-1.2154,-1.2179,-1.2175,-1.214,-1.214,-1.214,-1.214,-1.214,-1.214,-1.1732,-1.1752,-1.1774,-1.1808,-1.1833,-1.186,-1.1876,-1.19,-1.1925,-1.1959,-1.1983,-1.2008,-1.2042,-1.2075,-1.2102,-1.2113,-1.2122,-1.2113,-1.2127,-1.2148,-1.2153,-1.2157,-1.2153,-1.2115,-1.2115,-1.2101,-1.2101,-1.2101]}]]